This is the latest recevied weather packets stored in our database for station/object GCEMA. If no packets are shown the sender has not sent any weather packets the latest 1 day(s).
| Time | Temp. | Humidity | Pressure | Rain* | Wind** | Luminosity | Snow |
|---|---|---|---|---|---|---|---|
| 1778060807 | 12.78° C | - | 1008.2 hPa | 0 mm | 0 m/s | - | - |
| 1778060448 | 12.22° C | - | 1008.4 hPa | 0 mm | 0 m/s | - | - |
| 1778060267 | 12.22° C | - | 1008.5 hPa | 0 mm | 0 m/s | - | - |
| 1778060088 | 12.22° C | - | 1008.4 hPa | 0 mm | 0 m/s | - | - |
| 1778059906 | 12.22° C | - | 1008.4 hPa | 0 mm | 0 m/s | - | - |
| 1778059726 | 12.22° C | - | 1008.4 hPa | 0 mm | 0 m/s | - | - |
| 1778059367 | 12.22° C | - | 1008.4 hPa | 0 mm | 0 m/s | - | - |
| 1778058826 | 12.22° C | - | 1008.3 hPa | 0 mm | 0 m/s | - | - |
| 1778058467 | 12.22° C | - | 1008.4 hPa | 0 mm | 0 m/s | - | - |
| 1778058105 | 11.11° C | - | 1008.3 hPa | 0 mm | 0 m/s | - | - |
| 1778057746 | 12.22° C | - | 1008.2 hPa | 0 mm | 0 m/s | - | - |
| 1778057387 | 12.22° C | - | 1008 hPa | 0 mm | 0 m/s | - | - |
| 1778057203 | 12.22° C | - | 1007.9 hPa | 0 mm | 0 m/s | - | - |
| 1778056844 | 12.22° C | - | 1007.6 hPa | 0 mm | 0 m/s | - | - |
| 1778056665 | 12.22° C | - | 1007.8 hPa | 0 mm | 0 m/s | - | - |
| 1778056486 | 12.22° C | - | 1007.9 hPa | 0 mm | 0 m/s | - | - |
| 1778056124 | 12.22° C | - | 1007.5 hPa | 0 mm | 0 m/s | - | - |
| 1778055762 | 11.67° C | - | 1007.7 hPa | 0 mm | 0 m/s | - | - |
| 1778055220 | 10° C | - | 1007.8 hPa | 0 mm | 0 m/s | - | - |
| 1778055040 | 10.56° C | - | 1007.7 hPa | 0 mm | 0 m/s | - | - |
| 1778054861 | 11.11° C | - | 1007.6 hPa | 0 mm | 0 m/s | - | - |
| 1778054682 | 11.11° C | - | 1007.6 hPa | 0 mm | 0 m/s | - | - |
| 1778054314 | 11.67° C | - | 1007.6 hPa | 0 mm | 0 m/s | - | - |
| 1778054140 | 11.67° C | - | 1007.6 hPa | 0 mm | 0 m/s | - | - |
| 1778053782 | 10.56° C | - | 1007.7 hPa | 0 mm | 0 m/s | - | - |
* Rain latest hour (hover to see other rain measurements)
** Current wind speed in m/s (hover to see current wind gust speed)